Terminal Aerodrome Forecast
Issued by NWS Jackson, MS

Home | Current Version | Previous Version | Text Only | Print | Product List | Glossary On
Versions: 1 2 3 4 5 6 7 8 9 10 11 12
000
FTUS44 KJAN 191100
TAFGWO
TAF
KGWO 191120Z 1912/2012 06004KT P6SM BKN040
     FM191600 04005KT P6SM -RA SCT015 BKN030
     FM192000 03004KT 6SM -RA OVC015
     FM200400 03006KT P6SM BKN006 OVC025=

USA.gov is the U.S. government's official web portal to all federal, state and local government web resources and services.